This demonstration page uses our WeatherBlox Daily Observations layout. Learn more.

Left ArrowRight Arrow

39.92423, -83.80882

Hourly Observations for May 6, 2018

Temp ( °F °C ) Dew Point ( °F °C ) Humidity (%) Winds ( mph kmh ) Pressure ( in mb ) Visibility ( mi km ) Precip ( " mm )
12:56 am 00:56 Clear 55 12.8 52 11.1 90 90 NNE 3 6 30.01 1016 10 16.0934 0 0
1:56 am 01:56 Clear 54 12.2 52 11.1 93 93 NNE 5 7 29.98 1015 10 16.0934 0 0
2:56 am 02:56 Clear 54 12.2 52 11.1 93 93 N 3 6 29.97 1015 10 16.0934 0 0
3:56 am 03:56 Clear 53 11.7 52 11.1 96 96 Calm 29.98 1015 10 16.0934 0 0
4:56 am 04:56 Clear 53 11.7 52 11.1 96 96 NW 3 6 29.98 1015 10 16.0934 0 0
5:56 am 05:56 Clear 52 11.1 51 10.6 97 97 NW 5 7 29.99 1016 10 16.0934 0 0
6:56 am 06:56 Sunny 52 11.1 51 10.6 97 97 NNW 5 7 29.99 1016 7 11.26538 0 0
7:56 am 07:56 Sunny 55 12.8 53 11.7 93 93 Calm 29.99 1016 10 16.0934 0 0
8:56 am 08:56 Sunny 57 13.9 53 11.7 87 87 N 3 6 29.98 1015 10 16.0934 0 0
9:56 am 09:56 Sunny 60 15.6 53 11.7 78 78 Calm 29.98 1015 10 16.0934 0 0
10:56 am 10:56 Sunny 65 18.3 54 12.2 68 68 W 5 7 29.98 1015 10 16.0934 0 0
11:56 am 11:56 Sunny 69 20.6 51 10.6 53 53 ESE 3 6 29.98 1015 10 16.0934 0 0
12:56 pm 12:56 Sunny 70 21.1 50 10 49 49 Calm 29.97 1015 10 16.0934 0 0
1:56 pm 13:56 Sunny 74 23.3 50 10 43 43 VRB 3 6 29.96 1014 10 16.0934 0.01 0.254
2:56 pm 14:56 Sunny 75 23.9 49 9.4 40 40 NW 5 7 29.94 1014 10 16.0934 0 0
3:56 pm 15:56 Sunny 75 23.9 49 9.4 40 40 SSE 6 9 29.91 1013 7 11.26538 0 0
4:41 pm 16:41 Partly Cloudy with Nearby Thunderstorms 73 23 50 10 44 44 SSW 6 9 29.88 1012 10 16.0934 0 0
4:56 pm 16:56 Mostly Sunny 76 24.4 51 10.6 42 42 S 9 15 29.89 1012 10 16.0934 0 0
5:56 pm 17:56 Mostly Cloudy 73 22.8 50 10 44 44 S 7 11 29.91 1013 10 16.0934 0 0
6:11 pm 18:11 Cloudy with Nearby Thunderstorms 72 22 52 11 50 50 NNW 23 37 29.94 1014 10 16.0934 0 0.0254
6:25 pm 18:25 Cloudy with Heavy Thunderstorms 57 14 52 11 82 82 NNW 17 28 30 1016 4 6.43736 0 0.0254
6:56 pm 18:56 Cloudy with Nearby Thunderstorms 55 12.8 53 11.7 93 93 ESE 5 7 30 1016 7 11.26538 0 0
7:21 pm 19:21 Cloudy with Rain 55 13 54 12 94 94 SE 6 9 29.97 1015 9 14.48406 0 0
7:56 pm 19:56 Mostly Cloudy with Light Rain 57 13.9 55 12.8 93 93 SE 10 17 29.97 1015 10 16.0934 0 0
8:56 pm 20:56 Mostly Cloudy 59 15 56 13.3 90 90 SSE 8 13 29.98 1015 10 16.0934 0.01 0.254
9:56 pm 21:56 Cloudy 59 15 54 12.2 83 83 SSE 7 11 30 1016 10 16.0934 0 0
10:56 pm 22:56 Mostly Clear 57 13.9 54 12.2 90 90 SSW 5 7 30.01 1016 10 16.0934 0 0
11:56 pm 23:56 Clear 54 12.2 53 11.7 97 97 WSW 3 6 30.02 1017 10 16.0934 0.01 0.254

Powered by AerisWeather